Regional Weather Roundup
Issued by NWS

Home | Current Version | Previous Version | Graphics & Text | Print | Product List | Glossary On
Versions: 1 2 3 4 5 6 7 8 9 10 11 12 13 14 15 16 17 18 19 20 21 22 23 24 25 26 27 28 29 30 31 32 33 34 35 36 37 38 39 40 41 42 43 44 45 46 47 48 49 50
000
ASUS43 KLOT 270004
RWRIL

ILLINOIS REGIONAL WEATHER ROUNDUP
NATIONAL WEATHER SERVICE CHICAGO/ROMEOVILLE IL
700 PM CDT FRI MAY 26 2017

NOTE: "FAIR" INDICATES FEW OR NO CLOUDS BELOW 12,000 FEET WITH NO
SIGNIFICANT WEATHER AND/OR OBSTRUCTIONS TO VISIBILITY.

* THESE STATIONS ARE NOT UNDER NWS QUALITY CONTROL. THEY ALSO MAY NOT
  REPORT WEATHER SUCH AS PRECIPITATION OR FOG.

ILZ001-002-007-009-015-016-024-270100-
NORTHWEST ILLINOIS

CITY           SKY/WX    TMP DP  RH WIND       PRES   REMARKS
MOLINE         CLOUDY    67  60  78 NE8       29.79R
6HR MIN TEMP:  62; 6HR MAX TEMP:  71; 6HR PCP:  0.10;

STERLING*      PTSUNNY   62  59  90 NE9G18    29.80R
SAVANNA*       CLOUDY    64  59  83 E9        29.81S
$$

ILZ003-004-008-010-011-017-018-270100-
NORTH CENTRAL ILLINOIS

CITY           SKY/WX    TMP DP  RH WIND       PRES   REMARKS
ROCKFORD       CLOUDY    60  57  89 E12       29.81F
6HR MIN TEMP:  60; 6HR MAX TEMP:  69; 6HR PCP:  0.34;

FREEPORT*      CLOUDY    60  57  89 E6        29.84R
ROCHELLE*      CLOUDY    59  58  94 E13G23    29.80S
DE KALB*       DRIZZLE   57  56  95 E9        29.82S
PERU*          PTSUNNY   68  64  86 NW8       29.77S
$$

ILZ005-006-012>014-019>023-270100-
NORTHEAST ILLINOIS

CITY           SKY/WX    TMP DP  RH WIND       PRES   REMARKS
CHICAGO-OHARE  LGT RAIN  56  53  90 NE12      29.82R FOG
6HR MIN TEMP:  56; 6HR MAX TEMP:  69; 6HR PCP:  0.45;

CHICAGO-MIDWAY DRIZZLE   58  56  93 NE10      29.81F
6HR MIN TEMP:  57; 6HR MAX TEMP:  71; 6HR PCP:  0.26;

AURORA         CLOUDY    59  58  96 NE16      29.80S
6HR MIN TEMP:  59; 6HR MAX TEMP:  74; 6HR PCP:  0.54;

LANSING*       CLOUDY    61  59  93 N7        29.82R
JOLIET*        CLOUDY    64  61  88 NE9       29.78S
WAUKEGAN       LGT RAIN  54  54 100 NE7       29.84S FOG
6HR MIN TEMP:  54; 6HR MAX TEMP:  60; 6HR PCP:  0.21;

DUPAGE AIRPORT LGT RAIN  57  57 100 N8        29.81R FOG
6HR MIN TEMP:  57; 6HR MAX TEMP:  72; 6HR PCP:  0.52;

KANKAKEE*      CLOUDY    66  65  97 CALM      29.77S
WHEELING       LGT RAIN  54  54 100 NE9       29.84F
6HR MIN TEMP:  53; 6HR MAX TEMP:  66; 6HR PCP:  0.34;

MORRIS*        CLOUDY    64  61  90 CALM      29.78R
ROMEOVILLE*    RAIN      59  59  99 NE14      29.79S
NORTHERLY ISL    N/A     55  53  93 NE14        N/A
$$

LMZ740>746-270100-
SOUTHERN LAKE MICHIGAN

STATION/POSITION SKY/WX   TEMP    WIND        PRES    VSBY  WAVE
                          AIR SEA DIR/SP/G                  HT/PER
                          (F)     (DEG/KT/KT) (MB)    (MI)  (FT/S)
SOUTHERN BUOY              49 48   20/  4/  6 1011.4          1
WILMETTE HARBOR            50 51                N/A           2/ 3
HARRISON CRIB              55      50/ 20/ 22   N/A
BURNHAM HARBOR             55      30/ 13/ 16   N/A
CALUMET HARBOR             54     360/  8/ 16 1009.3R
BURNS HARBOR               57      80/ 12/ 14 1008.8F
MICHIGAN CITY              57      50/ 13/ 14   N/A
MICHIGAN CITY 6N           55 53   50/ 14/ 17   N/A           2/ 2
ST. JOSEPH                 58 56   60/ 10/ 14 1010.0F         1/ 3
$$

ILZ025>027-034>036-040-047-049-050-058-095>099-270100-
WEST-CENTRAL ILLINOIS

CITY           SKY/WX    TMP DP  RH WIND       PRES   REMARKS
QUINCY         MOSUNNY   77  67  71 N6        29.77R
GALESBURG*     CLOUDY    70  63  76 NW6       29.77S
MACOMB*        MOSUNNY   74  64  71 NW8       29.79S
JACKSONVILLE*  MOSUNNY   75  68  77 N7        29.75R
PITTSFIELD*    PTSUNNY   77  70  78 N6        29.77R HAZE
$$

ILZ028>032-037-038-041>044-048-051>054-059>061-270100-
CENTRAL ILLINOIS

CITY           SKY/WX    TMP DP  RH WIND       PRES   REMARKS
PONTIAC        CLOUDY    69  67  94 SE5       29.77R
BLOOMINGTON    CLOUDY    69  64  84 NE8       29.77S
DECATUR        CLOUDY    76  65  68 SW13G23   29.75R
PEORIA         MOSUNNY   73  66  78 NW8       29.76R
6HR MIN TEMP:  63; 6HR MAX TEMP:  75; 6HR PCP:  0.86;

LACON*         PTSUNNY   71  66  86 NW3       29.75S
LINCOLN*       CLOUDY    76  67  72 N3        29.74R
SPRINGFIELD    CLOUDY    81  68  64 W5        29.74R HX  84
6HR MIN TEMP:  78; 6HR MAX TEMP:  83;

TAYLORVILLE    CLOUDY    75  66  73 SW13      29.76R
6HR MIN TEMP:  75; 6HR MAX TEMP:  83;

$$

ILZ033-039-045-046-055>057-062-063-270100-
EAST-CENTRAL ILLINOIS

CITY           SKY/WX    TMP DP  RH WIND       PRES   REMARKS
CHAMPAIGN      CLOUDY    75  65  70 S16       29.75R
RANTOUL*       LGT RAIN  68  66  92 E9        29.76R
MATTOON        CLOUDY    75  65  70 SW9G20    29.76S
PARIS*         CLOUDY    74  64  69 S14G25    29.78R THUNDER
$$

ILZ079-100>102-270100-
SOUTHWEST ILLINOIS

CITY           SKY/WX    TMP DP  RH WIND       PRES   REMARKS
ALTON          CLOUDY    75  66  73 S8        29.77R
BELLEVILLE     MOSUNNY   76  67  75 SW9       29.78S
CAHOKIA*       CLOUDY    78  66  66 S7        29.76S HX  80
SPARTA*        CLOUDY    73  66  77 S10       29.80S
$$

ILZ064>066-069>071-074>076-080>082-084>086-088>090-092>094-270100-
SOUTH-CENTRAL ILLINOIS

CITY           SKY/WX    TMP DP  RH WIND       PRES   REMARKS
CARBONDALE     CLOUDY    73  68  84 SW9       29.81S
6HR MIN TEMP:  73; 6HR MAX TEMP:  85;

CAIRO*         DRIZZLE   71  69  95 W7        29.83R
EFFINGHAM*     CLOUDY    74  67  77 S5        29.78F
MT. VERNON       N/A     75  66  73 SW8       29.80S
CENTRALIA*     CLOUDY    75  67  78 SW12G18   29.78S
SALEM*         CLOUDY    76  65  70 SW14      29.79R
$$

ILZ067-068-072-073-078-083-087-091-270100-
SOUTHEAST ILLINOIS

CITY           SKY/WX    TMP DP  RH WIND       PRES   REMARKS
LAWRENCEVILLE  CLOUDY    79  61  53 S13       29.78S HX  80
FLORA*         CLOUDY    77  66  69 SW10G20   29.79S
FAIRFIELD*     CLOUDY    75  66  73 S5        29.79S
HARRISBURG*    CLOUDY    75  67  74 SW15G23   29.83R
ROBINSON*      CLOUDY    75  63  66 S5        29.78S
CARMI*         CLOUDY    76  65  68 SW15G21   29.81R
$$

ABBREVIATIONS USED IN REMARKS
   TC - TEMPERATURE IN CELSIUS
  WCI - WIND CHILL INDEX
   HX - HEAT INDEX
  VSB - VISIBILITY
$$





USA.gov is the U.S. government's official web portal to all federal, state and local government web resources and services.